Vertical_Velocity
5 5 4 3 1 1 0 0 -1 -2 -2 -2 -2 -2 -2 -2 -2 -2 -2 -2 -3 -3 -3 -3 -2 -1 -0 0 0 -0 0 1 1 -0 -1 -1 -1 -1 -1 -0 -0 0 1 1 1 1 1 1 2 1 1 0 1 0 -0 -1 -1 -1 -1 -1 -1 0 1 1 1 1 1 0 -0
4 4 4 3 2 2 1 1 1 0 -0 -1 -1 -2 -2 -1 -1 -2 -2 -3 -3 -3 -2 -2 -1 -1 -0 0 0 0 0 0 0 -0 -1 -2 -2 -1 -0 0 1 1 1 1 1 1 1 1 1 1 0 -0 0 -0 -1 -2 -1 -1 -1 -1 -1 0 1 1 0 1 1 1 1
3 3 4 4 2 1 -0 -1 -0 -0 -0 -0 -1 -1 -1 -1 -0 -1 -2 -3 -2 -1 -1 -1 -1 -1 -0 0 0 0 -0 -0 -0 -1 -1 -2 -1 -0 0 1 1 1 1 1 1 0 0 1 1 0 -0 -1 -1 -1 -2 -2 -1 -0 -1 -1 -0 1 1 -0 0 1 2 1 1
2 2 3 3 0 -2 -3 -3 -3 -2 -2 -2 -2 -2 -2 -1 -0 -0 -1 -2 -1 -1 -1 -1 -1 -0 0 0 0 -0 -0 -1 -1 -1 -1 -1 -1 -0 0 1 1 1 1 0 0 0 0 1 0 -0 -1 -1 -1 -2 -2 -1 -0 -0 -1 -0 1 1 0 -0 0 1 1 1 1
2 1 1 -0 -2 -3 -3 -3 -2 -1 -1 -2 -3 -3 -3 -1 -1 -1 -1 -1 -1 -1 -1 -1 -0 0 1 0 -0 -1 -1 -1 -1 -1 -1 -1 -0 0 1 1 0 0 0 0 -0 -0 -0 0 -0 -1 -1 -1 -1 -2 -1 -0 0 -0 -1 0 1 1 0 0 1 1 1 1 1
2 1 0 -1 -1 -1 -1 -0 1 1 1 1 -1 -2 -2 -2 -2 -1 -2 -2 -2 -2 -1 0 1 1 1 0 -1 -1 -2 -2 -2 -1 -1 -0 0 1 1 0 -0 -0 -0 -0 -0 -0 -0 0 -1 -1 -1 -1 -1 -1 -0 1 -0 -1 -0 0 -0 1 1 1 1 2 2 1 1
2 1 0 -1 -1 -1 -0 0 2 2 3 2 1 -0 -2 -3 -2 -2 -2 -2 -1 -1 -0 -0 0 1 1 1 -1 -2 -2 -2 -2 -1 -1 -0 -0 0 0 -0 -0 -0 -0 -0 -0 -0 -0 -0 -1 -1 -1 -0 -0 -0 -0 1 -0 -0 -0 -1 -0 1 2 1 1 2 2 1 1
3 2 -0 -2 -2 -2 -1 -0 1 1 1 1 1 0 -1 -2 -2 -2 -1 -0 -0 -1 -1 -0 -0 -0 0 1 -0 -1 -2 -2 -2 -1 -1 -0 -0 -0 -0 -0 -0 -0 -1 -0 -0 -0 -0 -0 -0 -0 -0 0 0 0 1 1 1 -0 -0 -0 0 1 2 1 2 2 2 2 2
3 3 2 -0 -1 -1 -1 -0 -0 -1 -1 -1 -0 -0 -0 -0 -1 -0 -0 -0 -1 -1 -1 -1 -1 -0 -0 -0 -0 -1 -1 -2 -2 -1 -1 -0 0 0 -0 0 -0 -0 -0 -0 -0 0 0 0 0 0 1 1 1 1 1 2 1 0 -0 1 1 1 1 1 1 1 1 1 1
3 4 4 3 2 1 0 0 0 -0 -1 -1 -1 -0 -0 0 0 -0 -0 -1 -1 -0 -1 -1 -1 -1 -1 -1 -1 -1 -1 -1 -1 -0 -0 0 0 0 0 0 0 0 0 0 1 1 1 1 1 1 1 2 2 2 2 2 1 1 0 0 1 1 1 1 1 1 0 -0 -0
1 2 3 4 4 3 2 1 1 1 0 0 -0 -0 0 0 -0 -1 -1 -1 -1 -1 -2 -2 -1 -1 -1 -1 -1 -1 -0 0 1 1 1 0 0 1 1 1 1 1 1 1 2 2 1 0 0 1 1 1 2 2 2 2 1 1 0 -0 1 1 0 0 1 1 0 -0 -0
-2 -0 1 3 3 3 2 0 0 1 1 1 1 1 0 -0 -1 -1 -1 -1 -2 -2 -2 -1 -1 -1 -1 -1 -0 0 1 1 2 2 2 1 1 1 1 1 2 2 2 2 2 2 1 -0 0 0 0 0 1 1 1 1 1 0 -0 -0 0 0 -0 -0 1 1 1 1 0
-4 -2 0 2 2 2 1 0 0 0 0 0 0 0 0 -0 -1 -1 -2 -2 -2 -2 -1 -0 0 0 0 0 1 1 2 2 2 2 2 2 2 2 2 2 2 2 2 2 2 2 1 -0 -0 -0 -0 -0 -0 0 0 0 -0 -1 -1 -1 0 -0 -0 -0 1 1 1 1 1
-2 -1 -0 0 1 1 0 0 0 -0 -0 -1 -1 -1 -1 -1 -1 -1 -1 -2 -1 -1 -0 1 1 1 1 1 1 2 2 2 3 3 2 2 2 2 2 2 2 2 2 2 2 1 1 0 0 0 -0 -0 -0 -0 0 0 -0 -1 -1 -0 -0 -0 -0 0 1 1 1 1 1
-0 -0 -0 -1 -1 -1 -1 -1 -1 -1 -2 -2 -3 -3 -3 -3 -2 -1 -1 -0 -0 -0 0 1 1 1 1 1 1 2 2 2 2 2 2 2 2 2 2 1 1 1 1 1 1 1 1 0 1 1 1 0 -0 0 1 0 0 -0 0 0 0 0 0 1 1 2 2 2 2
1 0 -0 -1 -1 -2 -2 -2 -2 -2 -3 -3 -3 -3 -3 -2 -2 -1 -0 -0 0 0 1 0 0 0 0 1 1 1 1 1 1 1 1 1 1 1 1 1 1 1 0 0 -0 -0 0 1 1 1 1 1 1 1 1 1 1 1 1 1 2 2 2 2 3 3 4 4 4
1 1 1 -0 -1 -1 -2 -2 -2 -3 -3 -3 -2 -2 -1 -1 -1 -1 -0 -0 -0 0 0 -0 0 0 0 -0 0 0 0 1 1 1 1 1 1 1 1 1 1 1 0 0 -0 -0 -0 0 1 1 1 1 1 1 1 2 2 2 2 3 3 3 3 3 3 4 5 5 4
1 1 1 1 0 -0 -1 -1 -2 -2 -3 -2 -2 -1 -1 -0 -0 -0 -0 -0 0 0 0 0 0 1 1 1 0 0 0 0 0 0 1 1 1 1 1 1 1 2 2 2 1 1 1 1 1 2 2 2 2 2 2 2 2 3 3 3 3 3 3 3 3 4 5 5 4
2 1 1 0 -0 -1 -1 -1 -2 -2 -2 -2 -2 -2 -1 -0 0 1 1 2 2 2 1 1 1 2 2 2 2 1 1 0 0 0 0 1 1 1 1 1 2 2 3 3 3 3 3 3 3 3 3 3 3 3 3 3 3 3 3 3 2 2 2 2 3 3 4 4 2
3 3 3 2 1 -0 -1 -2 -2 -2 -1 -1 -1 -1 -1 -0 -0 0 1 2 3 3 3 2 2 2 3 3 4 3 3 2 1 1 1 1 1 1 1 2 2 3 3 3 4 4 4 5 5 5 4 4 4 4 4 5 5 4 3 2 2 2 2 2 2 2 2 2 1
1 2 4 5 6 6 6 5 4 2 1 1 1 0 0 0 -0 -0 -0 0 2 2 2 2 2 2 2 3 3 3 3 3 3 2 2 1 1 1 2 2 2 3 3 3 3 3 4 4 4 4 4 4 4 4 5 5 4 3 2 2 3 3 4 4 3 2 2 2 1
-5 -5 -5 -3 -2 -1 -0 0 1 2 4 5 5 5 4 3 2 1 0 1 1 1 2 2 2 1 1 1 1 2 2 3 3 3 3 3 2 2 3 3 3 3 2 2 2 2 2 3 3 3 3 3 3 3 3 3 2 2 3 4 4 5 5 4 3 1 0 -1 -1
-4 -5 -5 -4 -4 -4 -4 -3 -3 -2 -2 -1 0 1 2 2 2 2 2 2 1 1 1 1 1 1 1 1 1 1 1 1 2 2 3 3 3 3 3 3 3 2 2 2 2 2 2 2 3 3 3 2 2 2 2 2 2 3 3 4 3 2 1 -0 -1 -2 -3 -3 -3
-1 -1 -1 -1 -1 -2 -2 -1 -1 -1 -2 -2 -2 -2 -2 -2 -3 -3 -3 -2 -2 -2 -1 -1 -1 -0 -0 0 0 1 1 1 1 2 2 3 3 3 3 3 3 3 2 3 3 3 3 3 3 2 2 2 1 1 1 2 2 2 1 1 -1 -3 -4 -4 -4 -4 -3 -3 -2
-0 -0 -0 -0 -0 -1 -1 -0 0 0 -0 -0 -1 -1 -1 -1 -2 -2 -3 -3 -3 -3 -3 -2 -2 -1 -1 -1 -0 -0 0 1 1 1 2 2 3 3 4 4 4 4 4 3 3 3 3 3 2 1 1 1 1 1 1 1 1 0 -0 -1 -3 -4 -5 -5 -3 -2 -1 -1 -0
0 0 0 1 1 1 0 0 -0 -0 -0 0 0 0 0 0 0 -0 -0 -0 -1 -1 -1 -0 -0 -0 -0 -0 -0 -0 0 0 1 1 1 1 2 2 2 2 3 3 2 0 0 1 0 0 -0 -0 -0 -0 -0 -0 -0 -0 -0 -0 -1 -2 -2 -2 -2 -2 -0 1 2 2 2
1 2 2 2 2 2 1 1 1 1 1 1 1 1 0 0 1 1 0 0 0 1 1 1 1 1 1 1 1 1 1 1 1 1 1 0 1 1 1 2 2 0 -2 -2 -1 -1 -1 -1 -1 -1 -1 -1 -1 -1 -1 -1 -0 -0 0 0 1 1 2 2 2 3 3 4 4
1 1 1 1 1 1 1 1 1 1 1 1 1 1 1 1 1 1 1 1 1 1 1 1 1 1 1 1 1 1 1 1 1 1 1 1 1 2 3 4 1 -2 -3 -2 -1 -1 -1 -1 -1 -1 -0 0 1 1 1 1 1 2 3 3 4 3 3 3 3 3 3 4 5
0 1 1 1 0 0 1 1 1 1 1 1 1 1 1 2 1 1 1 1 1 1 1 1 0 0 0 1 1 1 1 2 2 2 2 2 3 4 4 1 -2 -3 -2 -1 -0 -1 -1 -0 -0 0 1 1 2 2 2 3 3 3 4 4 3 3 2 2 3 3 3 3 4
0 0 0 0 1 1 1 2 2 2 2 2 1 1 1 1 1 1 1 1 1 1 0 0 1 1 1 1 1 2 2 2 2 2 3 4 4 2 -0 -3 -3 -2 -1 -0 -0 0 0 1 1 1 2 2 2 2 2 3 3 3 3 3 2 2 2 2 2 3 3 4 4
1 1 1 1 1 2 2 3 2 2 2 1 1 0 0 0 1 1 1 1 1 1 1 2 2 2 3 3 3 3 2 2 2 2 2 2 0 -2 -4 -2 -2 -1 -1 0 1 1 2 2 2 2 2 3 3 3 3 3 2 2 2 2 2 1 1 2 3 5 6 5 3
1 1 1 1 1 1 2 2 1 0 0 -0 -0 -0 -0 -0 0 1 1 1 2 2 2 3 3 3 3 3 3 3 2 1 1 1 0 -0 -2 -2 -1 1 0 1 1 2 2 3 3 3 3 3 2 2 2 2 1 1 2 2 2 2 1 1 2 5 7 6 5 2 -1
1 1 1 1 0 0 0 -0 -0 -0 -0 0 0 0 0 0 1 1 1 2 1 1 0 0 0 0 0 0 -0 -1 -1 -1 -0 0 0 0 -0 0 1 2 2 2 3 3 3 3 3 3 2 1 1 0 -0 -0 1 2 3 3 3 2 3 5 6 6 3 1 -1 -3 -3
1 1 1 1 0 -0 -1 -0 0 1 1 2 2 2 2 1 1 1 1 1 1 0 -0 -1 -1 -1 -1 -1 -1 -2 -2 -1 1 1 2 2 2 2 2 2 3 3 3 3 3 2 2 1 1 0 -0 0 1 2 3 3 3 3 3 4 6 6 5 1 -3 -4 -5 -3 -2
1 1 1 1 1 0 0 0 1 1 1 2 2 2 2 2 2 1 1 0 1 1 1 1 1 2 2 2 1 1 1 1 2 2 2 2 2 2 2 2 2 2 2 2 1 1 1 1 1 1 1 1 1 2 2 1 0 1 2 4 3 2 -0 -2 -3 -3 -2 -0 0
-0 -0 -0 0 1 1 1 1 1 1 1 1 1 1 1 2 2 1 1 1 2 2 2 3 3 3 4 4 3 3 2 2 2 2 1 1 1 1 1 1 1 1 1 0 -0 -0 -0 0 0 -0 -0 -0 -0 0 0 0 0 0 0 -0 -1 -2 -2 -2 -1 -0 1 1 1
-1 -1 -1 -1 -0 0 0 0 0 -0 -0 -1 -0 0 1 1 1 1 1 2 1 1 2 2 2 2 3 4 3 3 2 2 2 1 1 1 1 1 1 1 1 1 -0 -1 -2 -2 -2 -2 -2 -2 -2 -1 -1 -0 0 0 0 0 -0 -1 -1 -1 -1 -0 0 1 1 1 1
-1 -1 -1 -1 -1 -0 -0 -0 -0 -1 -1 -1 -1 -1 -1 -1 0 1 1 1 -1 -1 -1 -0 -0 0 1 1 1 1 1 1 1 1 1 1 1 1 1 1 0 -1 -2 -3 -3 -2 -2 -1 -1 -1 -1 -1 -1 -0 -0 -0 -0 -1 -1 -1 -1 -0 0 1 1 0 -0 -0 -1
-1 -1 -1 -1 -0 -0 -0 -0 0 -0 -0 -1 -1 -1 -2 -2 -1 -1 -1 -1 -1 -2 -2 -2 -2 -1 -0 -1 -1 -1 -0 -0 -0 0 1 -0 -1 -1 -1 -0 -0 -1 -1 -2 -1 -1 -1 -1 -1 -1 -1 -1 -1 -1 -1 -1 -1 -1 -1 -1 -0 0 0 0 -0 -1 -1 -2 -2
-0 -0 -0 0 0 0 0 0 0 0 -0 -0 -0 -0 -0 -1 -0 -0 -0 -0 -0 -1 -2 -2 -2 -2 -2 -2 -1 -0 0 0 -0 -1 -1 -1 -1 -1 -1 -0 0 -0 -0 -0 -0 -0 -0 -1 -1 -1 -1 -1 -1 -1 -1 -1 -1 -1 -1 -1 -1 -1 -1 -1 -1 -1 -2 -2 -2
0 0 0 0 0 0 0 0 0 0 0 -0 -0 -0 0 1 0 0 -0 -0 -1 -1 -1 -1 -2 -2 -2 -1 -1 -0 -0 -0 -1 -1 -0 -0 -0 -0 -0 -0 0 0 0 -0 -0 -0 -0 -1 -1 -1 -1 -1 -1 -1 -1 -1 -1 -2 -2 -2 -2 -2 -2 -2 -1 -1 -2 -2 -2
Height
1450 1451 1452 1453 1454 1455 1456 1457 1458 1459 1461 1462 1463 1464 1465 1466 1467 1468 1469 1470 1470 1471 1471 1472 1473 1473 1474 1474 1475 1476 1477 1477 1478 1479 1480 1480 1481 1482 1483 1483 1483 1484 1484 1485 1486 1486 1487 1487 1487 1488 1488 1488 1488 1488 1489 1489 1489 1490 1490 1490 1490 1490 1490 1490 1490 1490 1490 1489 1489
1450 1451 1452 1453 1454 1455 1456 1457 1458 1459 1460 1462 1463 1464 1465 1466 1467 1468 1468 1469 1470 1471 1471 1472 1472 1473 1473 1474 1474 1475 1476 1477 1477 1478 1479 1479 1480 1481 1482 1482 1483 1483 1484 1484 1485 1485 1486 1486 1486 1487 1487 1487 1487 1487 1488 1488 1488 1488 1488 1488 1488 1488 1488 1488 1488 1488 1488 1488 1488
1450 1451 1452 1453 1453 1454 1456 1457 1458 1459 1460 1461 1463 1464 1465 1466 1467 1468 1468 1469 1470 1470 1471 1471 1472 1472 1473 1473 1474 1474 1475 1476 1477 1477 1478 1478 1479 1480 1481 1481 1482 1482 1483 1483 1484 1484 1485 1485 1485 1485 1486 1486 1486 1486 1486 1487 1487 1487 1487 1487 1487 1487 1487 1487 1487 1487 1487 1487 1487
1449 1451 1451 1452 1453 1454 1455 1457 1458 1459 1460 1461 1462 1463 1465 1466 1467 1468 1468 1469 1469 1470 1471 1471 1471 1472 1472 1473 1473 1474 1474 1475 1476 1477 1477 1478 1478 1479 1480 1480 1481 1481 1482 1483 1483 1483 1484 1484 1484 1484 1484 1484 1485 1485 1485 1485 1486 1486 1486 1485 1486 1486 1486 1485 1485 1486 1486 1486 1486
1449 1450 1451 1452 1453 1454 1455 1456 1458 1459 1460 1461 1462 1463 1464 1465 1466 1467 1468 1468 1469 1469 1470 1471 1471 1472 1472 1473 1473 1473 1474 1475 1475 1476 1477 1477 1478 1478 1479 1480 1480 1481 1481 1482 1482 1483 1483 1483 1483 1483 1483 1483 1483 1483 1484 1484 1484 1484 1484 1484 1484 1484 1484 1484 1484 1484 1484 1484 1484
1449 1450 1451 1452 1453 1454 1455 1456 1458 1459 1460 1461 1462 1463 1464 1465 1466 1467 1467 1468 1468 1469 1470 1470 1471 1471 1472 1472 1473 1473 1473 1474 1475 1475 1476 1477 1477 1478 1478 1479 1479 1480 1480 1481 1481 1482 1482 1482 1482 1482 1482 1482 1482 1482 1483 1483 1483 1483 1483 1483 1483 1483 1483 1483 1483 1483 1483 1483 1482
1449 1450 1451 1452 1453 1454 1455 1456 1458 1458 1459 1460 1461 1462 1463 1464 1465 1466 1467 1467 1468 1468 1469 1470 1470 1471 1471 1472 1472 1473 1473 1474 1474 1475 1475 1476 1477 1477 1478 1478 1478 1479 1479 1480 1480 1481 1481 1481 1481 1481 1481 1481 1481 1481 1481 1481 1481 1481 1481 1481 1481 1482 1482 1482 1482 1482 1481 1481 1481
1449 1450 1451 1452 1453 1454 1455 1456 1457 1458 1459 1460 1461 1462 1463 1463 1464 1465 1466 1467 1468 1468 1468 1469 1470 1470 1471 1472 1472 1472 1473 1473 1474 1474 1475 1475 1476 1476 1477 1477 1478 1478 1478 1479 1479 1479 1480 1480 1480 1480 1480 1480 1480 1480 1480 1480 1480 1480 1480 1480 1480 1480 1480 1480 1480 1480 1480 1480 1479
1449 1450 1451 1452 1453 1454 1455 1456 1457 1458 1458 1459 1460 1461 1462 1463 1464 1465 1465 1466 1467 1468 1468 1468 1469 1470 1470 1471 1472 1472 1472 1473 1473 1474 1474 1475 1475 1476 1476 1477 1477 1477 1478 1478 1478 1478 1479 1479 1479 1479 1479 1479 1479 1479 1479 1479 1479 1479 1478 1478 1479 1479 1479 1479 1479 1479 1478 1478 1478
1449 1450 1451 1452 1453 1454 1454 1455 1456 1457 1458 1459 1460 1461 1462 1463 1463 1464 1465 1466 1466 1467 1468 1468 1468 1469 1470 1470 1471 1471 1472 1472 1473 1473 1473 1474 1474 1475 1475 1476 1476 1476 1477 1477 1477 1477 1478 1478 1478 1478 1478 1478 1478 1478 1478 1478 1478 1478 1478 1478 1478 1478 1478 1478 1478 1478 1477 1477 1476
1448 1450 1451 1452 1453 1453 1454 1455 1456 1457 1458 1459 1460 1461 1461 1462 1463 1463 1464 1465 1466 1466 1467 1467 1468 1468 1469 1470 1470 1471 1471 1472 1472 1473 1473 1473 1474 1474 1474 1475 1475 1476 1476 1476 1476 1476 1477 1476 1476 1477 1477 1477 1477 1477 1477 1477 1477 1477 1476 1476 1477 1477 1477 1477 1477 1476 1476 1475 1475
1448 1449 1451 1452 1453 1453 1454 1455 1456 1457 1458 1458 1459 1460 1461 1462 1463 1463 1464 1464 1465 1466 1466 1467 1468 1468 1468 1469 1469 1470 1471 1471 1472 1472 1472 1473 1473 1473 1474 1474 1474 1475 1475 1475 1476 1476 1476 1475 1475 1476 1476 1476 1476 1476 1476 1476 1476 1476 1475 1475 1475 1475 1475 1475 1475 1475 1475 1474 1473
1448 1449 1450 1451 1452 1453 1454 1454 1455 1456 1457 1458 1459 1460 1461 1461 1462 1463 1463 1464 1464 1465 1466 1466 1467 1468 1468 1468 1469 1469 1470 1470 1471 1471 1472 1472 1473 1473 1473 1473 1474 1474 1474 1475 1475 1475 1475 1475 1475 1475 1475 1475 1475 1475 1475 1475 1475 1474 1474 1474 1474 1474 1474 1474 1474 1473 1473 1473 1473
1448 1448 1450 1451 1452 1452 1453 1454 1455 1456 1457 1458 1458 1459 1460 1461 1462 1462 1463 1463 1464 1464 1465 1466 1466 1467 1467 1468 1468 1469 1469 1470 1470 1471 1471 1471 1472 1472 1473 1473 1473 1473 1474 1474 1474 1474 1474 1474 1474 1474 1474 1474 1474 1474 1474 1474 1474 1473 1473 1473 1473 1473 1473 1473 1472 1472 1472 1472 1471
1447 1448 1449 1450 1451 1452 1453 1454 1454 1455 1456 1457 1458 1459 1459 1460 1461 1462 1463 1463 1463 1464 1465 1465 1466 1466 1467 1467 1468 1468 1469 1469 1470 1470 1470 1471 1471 1472 1472 1472 1473 1473 1473 1473 1473 1473 1474 1474 1474 1474 1474 1473 1473 1473 1473 1473 1473 1473 1472 1472 1472 1472 1472 1472 1471 1471 1471 1470 1470
1447 1448 1449 1450 1451 1452 1453 1453 1454 1455 1456 1457 1458 1458 1459 1460 1461 1461 1462 1463 1463 1464 1464 1465 1465 1466 1466 1467 1467 1468 1468 1468 1469 1469 1470 1470 1471 1471 1471 1472 1472 1472 1472 1472 1473 1473 1473 1473 1473 1473 1473 1473 1473 1473 1473 1472 1472 1472 1472 1471 1471 1471 1471 1471 1471 1470 1470 1469 1469
1447 1448 1449 1450 1450 1451 1452 1453 1454 1455 1456 1457 1457 1458 1459 1459 1460 1461 1462 1462 1463 1463 1464 1464 1465 1465 1466 1466 1467 1467 1468 1468 1468 1469 1469 1469 1470 1470 1471 1471 1471 1471 1472 1472 1472 1472 1472 1472 1472 1472 1472 1472 1472 1472 1472 1471 1471 1471 1471 1471 1470 1470 1470 1470 1470 1469 1469 1468 1468
1447 1448 1448 1449 1450 1451 1452 1453 1453 1454 1455 1456 1457 1458 1458 1459 1460 1460 1461 1462 1462 1463 1463 1464 1465 1465 1466 1466 1466 1467 1467 1467 1468 1468 1468 1469 1469 1470 1470 1470 1471 1471 1471 1471 1471 1471 1471 1471 1471 1471 1471 1471 1471 1471 1471 1470 1470 1470 1470 1470 1469 1469 1469 1469 1469 1468 1468 1468 1467
1447 1448 1448 1449 1450 1451 1452 1452 1453 1454 1455 1456 1457 1457 1458 1458 1459 1460 1461 1461 1462 1463 1463 1464 1464 1465 1465 1466 1466 1466 1466 1467 1467 1468 1468 1468 1469 1469 1469 1470 1470 1470 1471 1471 1471 1471 1471 1471 1471 1471 1470 1470 1470 1470 1469 1469 1469 1469 1468 1468 1468 1468 1468 1468 1467 1467 1467 1466 1466
1447 1448 1448 1449 1450 1451 1451 1452 1453 1454 1454 1455 1456 1457 1458 1458 1459 1459 1460 1461 1462 1462 1463 1463 1464 1464 1465 1465 1466 1466 1466 1466 1467 1467 1467 1468 1468 1468 1468 1469 1469 1469 1470 1470 1470 1470 1470 1470 1470 1470 1469 1469 1469 1469 1468 1468 1468 1468 1467 1467 1467 1466 1466 1466 1466 1465 1465 1464 1464
1446 1447 1448 1449 1450 1451 1452 1452 1453 1453 1454 1455 1456 1456 1457 1458 1458 1459 1460 1460 1461 1462 1462 1463 1463 1463 1464 1464 1465 1465 1466 1466 1466 1466 1467 1467 1467 1468 1468 1468 1468 1468 1468 1469 1469 1469 1469 1469 1468 1468 1468 1468 1468 1468 1467 1467 1467 1466 1466 1466 1465 1465 1465 1464 1464 1463 1463 1463 1463
1444 1446 1447 1448 1449 1450 1450 1451 1452 1453 1454 1455 1455 1456 1457 1457 1458 1458 1459 1459 1460 1461 1461 1462 1462 1463 1463 1463 1464 1464 1464 1465 1465 1466 1466 1466 1466 1467 1467 1467 1467 1467 1467 1467 1467 1467 1467 1467 1467 1467 1467 1467 1466 1466 1466 1466 1465 1465 1465 1464 1464 1464 1463 1463 1462 1462 1461 1461 1461
1444 1445 1446 1447 1448 1449 1450 1450 1451 1452 1453 1453 1454 1455 1456 1456 1457 1458 1458 1459 1459 1460 1460 1460 1461 1461 1462 1462 1463 1463 1463 1464 1464 1464 1465 1465 1465 1466 1466 1466 1466 1466 1466 1466 1466 1466 1466 1466 1465 1465 1465 1465 1465 1465 1465 1464 1464 1464 1463 1463 1463 1462 1461 1461 1460 1460 1459 1459 1459
1444 1445 1446 1447 1448 1448 1449 1450 1451 1451 1452 1453 1453 1454 1454 1455 1455 1456 1457 1457 1458 1458 1459 1459 1460 1460 1461 1461 1461 1462 1462 1463 1463 1463 1463 1464 1464 1464 1465 1465 1465 1465 1465 1465 1465 1464 1464 1464 1464 1463 1463 1463 1463 1463 1463 1463 1463 1462 1462 1461 1460 1460 1459 1459 1458 1458 1458 1457 1457
1444 1445 1446 1447 1447 1448 1449 1450 1450 1451 1452 1452 1453 1453 1453 1454 1455 1455 1456 1456 1457 1457 1458 1458 1458 1459 1459 1460 1460 1460 1461 1461 1461 1462 1462 1463 1463 1463 1463 1464 1464 1464 1464 1463 1463 1463 1463 1462 1462 1462 1462 1462 1462 1462 1461 1461 1461 1460 1459 1459 1458 1458 1457 1457 1456 1456 1456 1456 1455
1443 1444 1445 1446 1447 1447 1448 1449 1449 1450 1451 1451 1452 1452 1453 1453 1454 1454 1455 1455 1456 1456 1457 1457 1457 1458 1458 1458 1459 1459 1459 1460 1460 1461 1461 1461 1462 1462 1462 1463 1463 1463 1462 1461 1461 1461 1461 1461 1461 1460 1460 1460 1460 1460 1459 1459 1458 1458 1458 1457 1456 1456 1455 1455 1455 1454 1454 1454 1454
1443 1443 1444 1445 1446 1446 1447 1448 1448 1449 1449 1450 1451 1451 1452 1452 1453 1453 1454 1454 1455 1455 1456 1456 1456 1457 1457 1457 1458 1458 1458 1459 1459 1459 1460 1460 1460 1461 1461 1461 1461 1461 1460 1459 1459 1459 1459 1459 1459 1459 1459 1459 1458 1458 1458 1458 1457 1457 1456 1456 1455 1454 1454 1453 1453 1453 1453 1453 1453
1443 1443 1444 1444 1445 1445 1446 1447 1447 1448 1448 1449 1450 1450 1451 1451 1452 1453 1453 1453 1454 1454 1455 1455 1455 1456 1456 1456 1457 1457 1458 1458 1458 1458 1459 1459 1459 1460 1460 1460 1459 1458 1458 1458 1458 1458 1458 1458 1458 1458 1458 1458 1457 1457 1456 1456 1456 1455 1455 1454 1454 1453 1453 1452 1452 1452 1452 1452 1451
1442 1443 1443 1444 1444 1445 1446 1446 1447 1447 1448 1448 1449 1449 1450 1451 1451 1452 1452 1453 1453 1453 1454 1454 1454 1455 1455 1455 1456 1456 1457 1457 1457 1458 1458 1458 1458 1458 1458 1458 1457 1456 1456 1457 1457 1457 1457 1457 1457 1456 1456 1456 1456 1455 1455 1454 1454 1453 1453 1453 1452 1452 1452 1451 1451 1451 1451 1450 1450
1442 1443 1443 1444 1444 1445 1446 1446 1447 1447 1448 1448 1448 1449 1449 1450 1451 1451 1451 1452 1452 1452 1453 1453 1453 1454 1454 1455 1455 1455 1456 1456 1456 1456 1456 1457 1457 1457 1456 1456 1455 1455 1455 1456 1456 1456 1456 1455 1455 1455 1455 1454 1454 1454 1453 1453 1453 1452 1452 1451 1451 1451 1451 1450 1450 1450 1449 1449 1448
1442 1443 1443 1444 1444 1445 1446 1446 1447 1447 1447 1448 1448 1448 1448 1449 1449 1450 1450 1451 1451 1452 1452 1453 1453 1453 1454 1454 1454 1454 1454 1454 1455 1455 1455 1455 1455 1455 1454 1455 1455 1455 1455 1455 1455 1455 1454 1454 1454 1454 1453 1453 1453 1453 1452 1452 1451 1451 1451 1451 1450 1450 1449 1449 1448 1448 1448 1447 1446
1442 1443 1443 1444 1444 1445 1445 1446 1446 1446 1446 1446 1447 1447 1448 1448 1448 1449 1450 1450 1451 1451 1452 1452 1452 1453 1453 1453 1453 1453 1453 1453 1453 1454 1454 1454 1454 1454 1454 1454 1454 1454 1454 1454 1454 1453 1453 1453 1453 1453 1453 1452 1452 1452 1451 1451 1451 1450 1450 1449 1449 1448 1448 1448 1448 1447 1446 1445 1445
1442 1443 1443 1443 1444 1444 1444 1444 1445 1445 1445 1446 1446 1447 1447 1448 1448 1449 1449 1450 1450 1450 1450 1450 1451 1451 1451 1452 1452 1452 1452 1452 1453 1453 1453 1453 1453 1453 1453 1453 1453 1453 1453 1453 1453 1453 1453 1452 1452 1452 1451 1451 1451 1451 1450 1450 1450 1450 1449 1449 1448 1448 1448 1447 1446 1446 1445 1444 1443
1442 1443 1443 1443 1443 1443 1444 1444 1444 1445 1445 1446 1446 1447 1447 1448 1448 1448 1448 1449 1449 1449 1449 1450 1450 1450 1451 1451 1451 1451 1451 1452 1452 1452 1453 1453 1453 1453 1453 1453 1453 1453 1452 1452 1452 1452 1452 1451 1451 1451 1451 1450 1450 1450 1450 1450 1449 1449 1449 1448 1448 1448 1447 1446 1445 1444 1444 1443 1443
1442 1443 1443 1443 1443 1443 1444 1444 1444 1445 1445 1446 1446 1447 1447 1447 1448 1448 1448 1448 1449 1449 1449 1450 1450 1451 1451 1451 1451 1451 1451 1451 1452 1452 1452 1452 1452 1452 1452 1452 1452 1452 1452 1452 1451 1451 1451 1451 1451 1450 1450 1450 1450 1450 1449 1449 1449 1448 1448 1448 1447 1446 1446 1445 1444 1443 1443 1443 1442
1442 1443 1443 1443 1443 1444 1444 1444 1445 1445 1445 1446 1446 1446 1447 1447 1448 1448 1448 1448 1449 1449 1449 1450 1450 1451 1451 1451 1451 1451 1451 1451 1452 1452 1452 1451 1451 1452 1452 1451 1451 1451 1451 1451 1451 1451 1450 1450 1450 1450 1449 1449 1449 1449 1448 1448 1448 1448 1447 1447 1446 1445 1444 1444 1443 1443 1442 1442 1442
1443 1443 1443 1443 1443 1444 1444 1444 1445 1445 1445 1445 1446 1446 1447 1447 1447 1448 1448 1448 1448 1449 1449 1449 1450 1450 1450 1450 1451 1451 1451 1451 1451 1451 1451 1451 1451 1451 1451 1451 1451 1451 1451 1451 1450 1450 1450 1450 1449 1449 1448 1448 1448 1448 1447 1447 1447 1446 1446 1445 1445 1444 1444 1443 1443 1442 1441 1441 1440
1443 1443 1443 1443 1444 1444 1444 1444 1445 1445 1445 1445 1446 1446 1447 1447 1447 1448 1448 1448 1448 1448 1449 1449 1449 1449 1450 1450 1450 1451 1451 1451 1451 1451 1451 1451 1451 1451 1451 1451 1451 1450 1450 1450 1450 1449 1449 1449 1448 1448 1448 1447 1447 1447 1446 1446 1445 1445 1444 1444 1444 1443 1443 1442 1442 1441 1440 1440 1439
1443 1443 1443 1444 1444 1444 1444 1445 1445 1445 1445 1446 1446 1446 1447 1447 1447 1447 1447 1448 1448 1448 1448 1449 1449 1449 1450 1450 1450 1451 1451 1451 1451 1451 1451 1451 1451 1451 1451 1451 1450 1450 1449 1449 1449 1449 1448 1448 1448 1447 1447 1446 1446 1446 1445 1445 1445 1444 1444 1443 1443 1443 1442 1441 1441 1440 1439 1439 1438
1443 1444 1444 1444 1444 1444 1445 1445 1445 1445 1445 1446 1446 1446 1446 1447 1447 1447 1447 1448 1448 1448 1448 1449 1449 1449 1449 1450 1450 1451 1451 1451 1451 1451 1451 1450 1450 1450 1450 1450 1450 1449 1449 1449 1448 1448 1448 1447 1447 1447 1446 1446 1445 1445 1445 1444 1444 1443 1443 1443 1442 1442 1441 1440 1440 1439 1439 1438 1437
1444 1444 1444 1444 1445 1445 1445 1445 1445 1445 1446 1446 1446 1446 1446 1447 1447 1447 1447 1448 1448 1448 1448 1448 1449 1449 1449 1450 1450 1450 1450 1450 1450 1450 1450 1450 1450 1449 1449 1449 1449 1449 1448 1448 1448 1448 1448 1447 1447 1446 1446 1445 1445 1445 1444 1444 1443 1443 1442 1442 1441 1441 1440 1439 1439 1438 1438 1437 1436